Regional Weather Roundup
Issued by NWS Cleveland, OH

Home | Current Version | Previous Version | Graphics & Text | Print | Product List | Glossary On
Versions: 1 2 3 4 5 6 7 8 9 10 11 12 13 14 15 16 17 18 19 20 21 22 23 24 25 26 27 28 29 30 31 32 33 34 35 36 37 38 39 40 41 42 43 44 45 46 47 48 49 50
008
ASUS41 KCLE 241000
RWRCLE
OHIO REGIONAL WEATHER ROUNDUP
NATIONAL WEATHER SERVICE WILMINGTON, OH
600 AM EDT WED MAY 24 2017

NOTE: "FAIR" INDICATES FEW OR NO CLOUDS BELOW 12,000 FEET WITH NO
SIGNIFICANT WEATHER AND/OR OBSTRUCTIONS TO VISIBILITY.

OHZ001>008-015>018-024>027-034-035-043-044-241100-
   NORTHWEST OHIO

CITY           SKY/WX    TMP DP  RH WIND       PRES   REMARKS
DEFIANCE       FAIR      55  48  77 NE6       29.57F
FINDLAY        MOCLDY    59  53  80 E7        29.56F
TOLEDO EXPRESS CLOUDY    57  52  83 NE3       29.58S
TOLEDO EXEC    MOCLDY    58  55  90 NE5       29.59F
LIMA           CLOUDY    59  57  93 SE7       29.57F
$$

OHZ009>014-019>023-028>033-038-089-241100-
   NORTHEAST OHIO

CITY           SKY/WX    TMP DP  RH WIND       PRES   REMARKS
CLE-HOPKINS    MOCLDY    62  55  77 S7        29.63S
CLE-LAKEFRONT  FAIR      62  53  72 SE5       29.60F
CUY CO. ARPT   NOT AVBL
LORAIN-ELYRIA    N/A    N/A N/A N/A MISG      29.61S
ASHTABULA      FAIR      56  51  84 SE6       29.65F
AKRON-CANTON   CLOUDY    60  54  80 E7        29.62F
WOOSTER        NOT AVBL
MANSFIELD      MOCLDY    59  58  96 SE7       29.61S
YOUNGSTOWN     RAIN      56  54  93 SE8       29.66F FOG
$$

OHZ042-051>053-060>062-070>072-077>081-241100-
  SOUTHWEST OHIO

CITY           SKY/WX    TMP DP  RH WIND       PRES   REMARKS
CINC-COVINGTON MOCLDY    60  58  92 S5        29.55S
CINC-LUNKEN    FOG       58  58 100 CALM      29.57R VSB 1
HAMILTON       FAIR      59  58  96 CALM      29.56F
DAYTON         NOT AVBL
WRIGHT-PAT AFB NOT AVBL
DAYTON GENERAL FAIR      59  57  93 E6        29.55F
WILMINGTON     FAIR      59  59 100 E5        29.57F
$$

OHZ036-037-039>041-045>050-054>059-063>069-073>076-082>088-241100-
  CENTRAL AND SOUTHEAST OHIO

CITY           SKY/WX    TMP DP  RH WIND       PRES   REMARKS
COLUMBUS       CLOUDY    61  59  93 E3        29.59S
OSU AIRPORT    FAIR      58  58 100 E7        29.58F
BOLTON FIELD   NOT AVBL
RICKENBACK AFB NOT AVBL
NEWARK         CLOUDY    59  57  93 CALM      29.60R FOG
MARION         FAIR      60  58  92 SE6       29.59F
LANCASTER      CLOUDY    61  58  90 E5        29.59F
ZANESVILLE     CLOUDY    60  57  89 CALM      29.61S
NEW PHILLY     CLOUDY    60  57  89 E3        29.62S
$$




USA.gov is the U.S. government's official web portal to all federal, state and local government web resources and services.